Wind_Speed
65 67 71 75 75 73 73 75 78 79 79 81 86 93 100 106 112 118 122 126 127 125 120 114 107 101 95 91 88 86 85 85 86 87 87 89 92 95
67 71 75 76 74 74 76 79 83 86 88 90 96 103 110 117 123 126 126 122 116 110 104 97 89 81 76 73 72 70 70 71 74 75 77 80 83 84
71 75 75 75 75 77 79 83 89 96 100 101 106 111 117 119 118 113 108 103 99 96 92 87 81 76 72 69 66 65 66 67 68 69 70 72 74 76
74 75 74 75 76 79 85 91 98 104 109 112 113 115 112 105 98 92 88 86 83 79 75 71 68 66 64 63 62 62 63 63 63 61 59 59 60 63
74 74 74 76 79 85 92 99 105 110 114 117 114 105 95 85 76 69 65 61 58 55 53 51 51 50 51 52 54 55 56 56 55 53 50 49 50 53
73 74 76 81 87 93 99 106 111 113 112 108 99 87 73 61 55 50 44 41 39 39 38 37 37 39 41 44 46 47 48 49 50 50 49 48 48 50
73 76 82 87 93 100 106 110 111 107 100 91 79 65 53 47 43 40 36 31 31 34 30 31 32 33 36 38 39 40 42 43 44 43 42 41 40 41
77 82 88 94 100 106 110 108 102 93 83 72 59 49 42 39 36 34 32 30 27 29 28 28 30 31 34 36 37 38 38 36 32 29 27 27 27 28
83 89 94 101 107 109 106 97 85 75 66 57 47 40 35 34 33 30 28 27 28 27 24 24 28 30 34 35 35 33 30 25 19 16 16 18 20 23
89 95 101 106 108 104 95 82 69 59 52 46 41 36 33 33 32 28 24 22 26 30 30 28 29 30 32 32 29 25 22 18 15 15 17 20 22 25
95 101 106 107 102 92 79 66 54 45 42 40 37 35 33 33 32 28 24 22 24 30 34 33 32 29 29 29 25 20 16 15 16 18 20 23 25 26
100 105 105 99 87 74 63 52 42 36 35 34 33 33 34 33 33 32 30 28 28 28 31 31 31 28 25 26 21 15 13 15 17 19 21 23 25 27
102 102 94 82 70 60 50 41 35 34 33 31 31 31 31 31 32 33 33 33 32 31 31 30 28 26 23 19 16 12 12 15 18 21 24 26 27 28
99 90 78 66 57 48 40 34 33 33 31 30 30 30 30 30 31 31 32 33 33 32 31 28 25 22 20 18 16 15 15 17 19 21 24 25 26 28
86 74 64 55 46 38 33 32 31 29 28 28 29 30 31 30 29 28 28 29 31 30 27 24 21 20 18 18 18 18 19 22 24 24 23 21 20 23
72 62 52 43 36 32 31 31 30 30 29 29 30 31 31 30 28 26 24 23 24 24 22 19 17 17 17 18 20 22 24 23 23 22 19 15 16 18
60 49 40 33 31 32 32 32 31 31 32 32 31 31 30 29 27 25 23 21 19 18 17 15 14 14 16 19 22 23 23 22 22 23 19 15 16 17
48 38 32 30 30 29 30 31 32 32 32 32 31 30 29 27 25 24 22 19 16 14 13 11 10 11 14 18 21 22 22 22 22 21 20 18 15 16
37 31 30 30 29 29 29 29 30 31 31 30 29 27 26 25 23 22 20 18 15 11 9 7 5 6 10 15 20 23 23 23 22 23 20 18 15 15
31 30 29 29 28 28 28 28 28 29 29 28 27 25 24 23 22 20 18 16 13 10 8 6 4 3 6 11 17 21 24 23 21 22 22 18 15 15
29 28 26 26 26 26 26 27 28 28 27 26 25 24 23 21 20 18 17 15 12 9 7 5 3 2 3 8 14 19 22 23 22 21 20 18 16 17
26 25 25 25 24 24 25 26 27 27 26 25 24 23 22 21 19 18 17 15 12 9 6 4 3 1 0 4 9 15 20 22 22 20 19 21 23 23
24 24 23 23 22 22 23 25 26 26 26 25 24 24 23 22 21 19 18 15 12 8 5 2 1 0 1 2 6 11 16 19 20 19 19 22 25 27
Wind_Direction
302 303 304 306 306 306 304 303 302 301 300 300 300 299 299 298 297 296 295 294 292 291 288 286 284 282 280 278 276 274 273 272 272 270 269 267 265 264
303 305 306 307 306 304 304 304 304 304 303 303 302 302 301 300 299 298 296 295 292 290 287 285 281 277 274 272 270 270 270 271 271 271 269 266 264 262
305 306 307 306 305 305 306 306 306 306 305 305 304 303 302 301 300 298 296 294 291 289 287 284 281 276 271 269 268 267 269 271 273 273 271 267 264 261
306 307 306 306 306 307 308 309 309 309 308 307 306 305 304 303 301 299 297 295 293 291 288 284 280 275 271 269 268 270 272 274 276 276 274 269 266 261
307 307 307 308 308 309 310 311 311 311 310 309 308 308 307 305 303 302 302 301 299 297 293 289 284 279 274 272 272 274 277 279 279 278 275 270 265 261
308 308 309 310 310 311 312 313 313 312 310 310 310 311 311 309 309 310 311 310 308 303 300 297 291 285 281 279 280 282 284 283 280 276 271 267 264 261
309 310 311 311 312 313 314 314 313 312 311 312 314 314 315 314 315 316 318 319 314 309 311 307 300 296 292 290 289 290 291 288 281 273 267 264 264 263
310 311 312 313 313 314 315 315 313 313 313 314 316 317 318 318 321 323 324 324 320 316 321 316 308 304 299 295 293 293 296 294 285 272 264 262 265 267
312 313 314 314 315 316 316 314 313 313 313 316 318 320 322 323 327 329 329 328 326 327 329 323 313 308 303 299 297 296 297 295 285 272 268 272 275 277
314 315 316 316 317 316 315 314 314 313 314 316 318 321 323 326 330 334 335 333 330 328 330 328 319 313 307 304 302 300 298 293 284 278 280 283 284 284
315 316 317 317 316 315 315 316 315 313 314 316 319 322 325 328 332 335 336 336 336 331 331 332 328 324 315 311 309 305 301 291 286 287 289 291 291 290
317 318 318 317 316 315 316 317 316 315 316 317 319 321 324 328 331 335 337 340 342 339 336 336 333 331 324 316 318 312 301 294 292 294 295 295 294 293
318 318 318 317 316 317 317 317 317 317 318 318 319 321 324 328 331 334 336 338 343 346 345 345 345 345 345 341 337 332 319 312 310 307 304 300 296 294
319 318 318 317 317 317 318 318 318 319 319 319 320 321 323 326 329 331 334 336 341 348 350 351 355 359 5 9 8 0 349 340 330 320 312 305 299 297
320 319 319 319 318 318 319 321 320 319 319 320 320 319 319 321 323 326 330 335 340 346 352 356 2 9 17 20 17 8 356 345 338 332 326 321 316 311
320 320 320 320 320 321 322 323 323 322 321 321 321 320 319 319 320 322 327 333 338 343 352 1 11 19 24 22 15 7 359 354 352 348 347 345 343 337
322 322 322 322 323 324 324 325 325 324 324 325 324 324 323 322 321 321 324 330 336 344 354 5 19 30 29 20 13 7 360 355 1 8 10 7 6 7
324 324 324 324 325 325 326 326 326 326 325 324 323 322 323 324 324 323 323 325 331 341 352 3 19 32 31 24 18 12 6 3 7 11 17 18 21 33
325 326 326 327 328 329 330 329 329 329 329 327 325 324 325 326 326 326 324 323 325 333 344 353 11 34 33 28 24 20 20 20 22 25 29 30 38 58
327 328 329 331 333 334 336 337 337 336 336 335 334 332 330 329 329 328 326 323 321 325 330 336 342 18 33 30 28 27 26 27 28 30 37 40 51 77
329 332 335 337 340 343 345 345 345 344 344 344 345 344 341 338 335 333 330 327 323 322 321 317 322 331 28 30 29 30 30 32 33 36 43 52 71 91
334 338 340 343 347 351 354 355 355 354 354 354 353 352 349 346 343 340 336 333 328 324 319 310 307 305 34 37 34 35 36 39 42 50 61 74 87 96
340 342 344 347 351 355 358 358 358 358 358 358 357 355 353 350 348 345 342 338 331 323 311 298 264 206 154 87 46 41 43 48 56 68 79 89 95 99
Height
5638 5631 5622 5613 5604 5594 5585 5576 5568 5563 5561 5553 5540 5527 5511 5495 5479 5464 5449 5436 5423 5411 5399 5390 5382 5377 5373 5370 5368 5366 5365 5363 5363 5363 5364 5364 5366 5370
5624 5615 5606 5596 5586 5576 5567 5557 5545 5536 5531 5527 5514 5498 5479 5460 5440 5421 5404 5388 5374 5363 5354 5349 5346 5344 5342 5341 5340 5339 5338 5337 5335 5334 5334 5334 5335 5337
5607 5598 5589 5579 5569 5559 5548 5537 5525 5511 5501 5497 5483 5468 5447 5425 5404 5383 5364 5348 5335 5326 5319 5314 5313 5313 5314 5315 5316 5316 5315 5314 5311 5309 5306 5305 5306 5309
5591 5582 5572 5562 5552 5541 5529 5516 5501 5485 5468 5457 5450 5432 5413 5390 5370 5354 5337 5320 5306 5297 5289 5285 5283 5284 5286 5289 5291 5292 5291 5290 5288 5285 5283 5282 5282 5282
5574 5565 5555 5545 5534 5522 5508 5493 5476 5458 5437 5419 5407 5393 5378 5359 5343 5330 5315 5300 5286 5276 5269 5265 5263 5263 5265 5267 5269 5269 5269 5268 5266 5263 5262 5260 5260 5260
5558 5548 5538 5526 5514 5501 5485 5468 5449 5430 5410 5391 5376 5362 5349 5336 5323 5312 5303 5289 5276 5265 5259 5255 5252 5251 5251 5251 5252 5252 5250 5247 5244 5241 5240 5240 5240 5240
5543 5532 5520 5507 5492 5476 5459 5441 5421 5401 5384 5369 5356 5343 5332 5322 5312 5302 5292 5283 5272 5261 5257 5252 5246 5243 5241 5239 5237 5235 5232 5228 5224 5221 5221 5221 5222 5223
5527 5515 5501 5486 5470 5453 5434 5414 5393 5374 5361 5351 5341 5331 5321 5312 5303 5293 5284 5276 5268 5261 5254 5249 5242 5239 5234 5230 5227 5223 5218 5213 5209 5207 5207 5208 5209 5209
5509 5496 5481 5464 5446 5429 5411 5393 5375 5358 5345 5337 5329 5321 5313 5305 5296 5288 5279 5270 5262 5256 5251 5247 5239 5233 5227 5221 5216 5213 5209 5204 5201 5200 5200 5200 5199 5199
5489 5474 5458 5441 5421 5403 5389 5375 5360 5346 5335 5327 5320 5312 5305 5298 5290 5282 5275 5269 5261 5251 5245 5241 5234 5227 5219 5212 5207 5205 5201 5198 5196 5195 5194 5193 5192 5190
5469 5451 5433 5417 5400 5382 5368 5357 5347 5336 5327 5319 5312 5304 5298 5291 5284 5277 5271 5266 5259 5250 5241 5233 5226 5219 5212 5205 5200 5197 5195 5193 5192 5190 5188 5185 5182 5179
5450 5430 5409 5391 5375 5361 5351 5343 5335 5328 5321 5314 5306 5299 5293 5286 5279 5272 5265 5260 5254 5247 5239 5230 5221 5213 5206 5198 5195 5192 5190 5188 5186 5184 5180 5176 5172 5168
5428 5409 5389 5372 5358 5347 5338 5331 5325 5320 5314 5307 5302 5295 5289 5282 5275 5268 5260 5253 5248 5242 5234 5226 5217 5208 5201 5196 5192 5189 5186 5184 5181 5177 5172 5168 5163 5158
5405 5386 5370 5357 5346 5337 5330 5324 5318 5312 5307 5301 5295 5290 5284 5278 5272 5265 5258 5251 5244 5237 5230 5223 5216 5208 5201 5196 5192 5189 5185 5181 5177 5171 5165 5159 5153 5148
5384 5367 5355 5345 5336 5329 5323 5318 5312 5306 5301 5295 5290 5284 5278 5273 5268 5262 5256 5249 5242 5236 5229 5222 5216 5210 5204 5198 5194 5190 5185 5180 5173 5167 5159 5153 5147 5141
5368 5355 5344 5335 5328 5322 5317 5311 5305 5299 5294 5289 5283 5277 5272 5267 5262 5257 5253 5248 5242 5235 5230 5223 5217 5211 5206 5201 5196 5190 5185 5179 5173 5165 5157 5151 5145 5138
5355 5345 5336 5329 5323 5317 5310 5304 5299 5293 5287 5281 5276 5271 5266 5261 5256 5252 5248 5244 5239 5235 5229 5224 5219 5214 5209 5204 5199 5193 5186 5180 5173 5166 5159 5153 5147 5141
5344 5336 5330 5324 5318 5312 5306 5300 5293 5287 5282 5276 5271 5266 5261 5256 5251 5247 5243 5240 5237 5233 5228 5224 5220 5217 5212 5208 5203 5197 5190 5183 5176 5169 5162 5157 5153 5148
5337 5331 5325 5319 5313 5307 5301 5295 5289 5283 5277 5271 5266 5261 5256 5251 5247 5243 5240 5237 5234 5231 5227 5224 5221 5218 5214 5210 5206 5200 5193 5186 5179 5173 5167 5163 5159 5157
5332 5326 5320 5314 5309 5303 5297 5291 5285 5279 5273 5267 5261 5256 5252 5247 5243 5240 5236 5233 5231 5228 5226 5223 5221 5218 5216 5213 5209 5204 5197 5191 5184 5179 5174 5170 5167 5167
5328 5323 5317 5311 5306 5300 5295 5289 5283 5276 5270 5264 5259 5254 5249 5245 5241 5237 5233 5230 5228 5226 5224 5222 5220 5219 5217 5215 5212 5208 5203 5197 5191 5185 5181 5179 5177 5177
5325 5320 5314 5309 5304 5299 5293 5288 5281 5275 5269 5263 5258 5253 5248 5244 5239 5235 5231 5228 5226 5224 5222 5221 5220 5219 5218 5217 5215 5213 5208 5204 5198 5194 5191 5189 5187 5187
5323 5318 5313 5308 5303 5298 5293 5288 5282 5276 5270 5264 5259 5253 5248 5243 5238 5234 5230 5226 5224 5222 5221 5221 5220 5219 5219 5219 5219 5217 5214 5211 5207 5204 5202 5200 5199 5199